Date String (YYYY-MM-DD hh:mm:ss) UTC,Instrument flags,absolute air pressure of the measurement (hPa),sample flow rate (lpm),inlet stack bypass flow (lpm),air temperature of the measurement (°C),ambient temperature measured by the external sensor (°C),aerosol sample conditioner tube jacket temperature (°C),OPC LED temperature (°C),internal box temperature (°C),relative humidity of the measurement (%),span deviation,mass concentration of particles derived from Lorenz-Mie calculation of OPC scattering (μg/m³),mass concentration of particles derived from Lorenz-Mie calculation of OPC scattering (μg/m³),mass concentration of particles derived from Lorenz-Mie calculation of OPC scattering (μg/m³)
DateTimeUTC,F1_M11,P_M11,Q1_M11,Q2_M11,T1_M11,T2_M11,T3_M11,T4_M11,T5_M11,U1_M11,ZSPAN_M11,X2_M11,X0_M11,X1_M11
2023-12-21 19:00:00,SystemResetWarning,0831.9,5.00,000.00,026.5,022.9,000.0,034.6,027.8,13.9,0000.0,0004.56,0010.28,0004.02
2023-12-21 19:01:00,SystemResetWarning,0831.9,5.01,000.00,026.4,022.7,000.0,034.6,027.6,13.6,0000.0,0004.62,0010.31,0004.08
2023-12-21 19:02:00,SystemResetWarning,0831.9,5.01,000.00,026.2,023.0,000.0,034.5,027.1,13.7,0000.0,0004.64,0011.14,0004.11
2023-12-21 19:03:00,SystemResetWarning,0831.9,5.00,000.00,026.1,023.4,000.0,034.5,027.1,13.9,0000.0,0004.68,0010.77,0004.13
2023-12-21 19:04:00,SystemResetWarning,0831.9,4.99,000.00,026.1,023.7,000.0,034.4,027.1,13.9,0000.0,0004.73,0010.80,0004.16
2023-12-21 19:05:00,SystemResetWarning,0831.8,5.00,000.00,026.0,024.0,000.0,034.4,027.2,13.8,0000.0,0004.75,0010.78,0004.17
2023-12-21 19:06:00,SystemResetWarning,0831.8,5.00,000.00,026.0,024.3,000.0,034.4,027.3,13.8,0000.0,0004.71,0010.63,0004.13
2023-12-21 19:07:00,SystemResetWarning,0831.8,5.02,000.00,026.0,024.5,000.0,034.4,027.4,13.8,0000.0,0004.67,0010.58,0004.10
2023-12-21 19:08:00,SystemResetWarning,0831.8,4.99,000.00,026.0,024.7,000.0,034.3,027.4,13.9,0000.0,0004.67,0010.01,0004.09
2023-12-21 19:09:00,SystemResetWarning,0832.0,4.99,000.00,026.1,024.8,000.0,034.3,027.5,13.8,0000.0,0004.71,0009.76,0004.10
2023-12-21 19:10:00,SystemResetWarning,0831.9,5.00,000.00,026.1,024.9,000.0,034.3,027.5,13.7,0000.0,0004.73,0009.55,0004.10
2023-12-21 19:11:00,SystemResetWarning,0832.1,5.00,000.00,026.1,025.1,000.0,034.3,027.5,13.7,0000.0,0004.74,0009.68,0004.07
2023-12-21 19:12:00,SystemResetWarning,0832.3,5.01,000.00,026.1,025.2,000.0,034.3,027.6,13.7,0000.0,0004.69,0009.55,0004.03
2023-12-21 19:13:00,SystemResetWarning,0832.1,5.00,000.00,026.1,025.2,000.0,034.3,027.7,13.6,0000.0,0004.60,0008.66,0003.94
2023-12-21 19:14:00,SystemResetWarning,0831.9,5.01,000.00,026.2,025.3,000.0,034.3,027.6,13.7,0000.0,0004.48,0008.63,0003.84
2023-12-21 19:15:00,SystemResetWarning,0832.3,5.00,000.00,026.2,025.4,000.0,034.4,027.7,13.8,0000.0,0004.30,0008.64,0003.75
2023-12-21 19:16:00,SystemResetWarning,0832.2,5.00,000.00,026.2,025.4,000.0,034.4,027.7,13.7,0000.0,0004.15,0008.78,0003.64
2023-12-21 19:17:00,SystemResetWarning,0832.1,5.00,000.00,026.3,025.5,000.0,034.4,027.8,13.6,0000.0,0004.05,0008.96,0003.55
2023-12-21 19:18:00,SystemResetWarning,0832.0,5.00,000.00,026.3,025.5,000.0,034.4,027.8,13.6,0000.0,0003.97,0009.03,0003.48
2023-12-21 19:19:00,SystemResetWarning,0832.3,5.00,000.00,026.3,025.6,000.0,034.4,027.8,13.6,0000.0,0003.91,0009.03,0003.42
2023-12-21 19:20:00,SystemResetWarning,0832.1,4.99,000.00,026.3,025.3,000.0,034.4,027.9,13.5,0000.0,0003.81,0008.89,0003.35
2023-12-21 19:21:00,SystemResetWarning,0832.2,4.99,000.00,026.3,023.4,000.0,034.4,027.7,13.4,0000.0,0003.71,0008.98,0003.28
2023-12-21 19:22:00,SystemResetWarning,0831.8,5.02,000.00,026.2,022.0,000.0,034.4,027.4,13.5,0000.0,0003.64,0010.17,0003.23
2023-12-21 19:23:00,SystemResetWarning,0831.7,5.00,000.00,026.1,022.0,000.0,034.3,027.1,13.6,0000.0,0003.56,0009.83,0003.16
2023-12-21 19:24:00,SystemResetWarning,0831.7,5.00,000.00,025.9,022.4,000.0,034.3,026.7,13.7,0000.0,0003.53,0010.12,0003.11
2023-12-21 19:25:00,SystemResetWarning,0831.7,5.00,000.00,025.8,022.8,000.0,034.2,026.8,13.7,0000.0,0003.51,0010.73,0003.05
2023-12-21 19:26:00,SystemResetWarning,0831.7,5.01,000.00,025.8,023.2,000.0,034.2,026.9,13.8,0000.0,0003.50,0011.02,0002.95
2023-12-21 19:27:00,SystemResetWarning,0831.7,4.99,000.00,025.8,023.6,000.0,034.1,027.0,13.9,0000.0,0003.47,0010.95,0002.90
2023-12-21 19:28:00,SystemResetWarning,0831.7,5.00,000.00,025.8,023.9,000.0,034.1,027.1,13.8,0000.0,0003.44,0010.67,0002.84
2023-12-21 19:29:00,SystemResetWarning,0831.7,4.99,000.00,025.8,024.1,000.0,034.1,027.2,13.8,0000.0,0003.43,0011.27,0002.78
2023-12-21 19:30:00,SystemResetWarning,0831.7,5.00,000.00,025.8,024.3,000.0,034.1,027.2,13.9,0000.0,0003.38,0011.39,0002.71
2023-12-21 19:31:00,SystemResetWarning,0831.7,5.02,000.00,025.8,024.5,000.0,034.1,027.3,13.9,0000.0,0003.33,0011.33,0002.66
2023-12-21 19:32:00,SystemResetWarning,0831.7,5.00,000.00,025.8,024.7,000.0,034.1,027.3,13.9,0000.0,0003.29,0011.24,0002.62
2023-12-21 19:33:00,SystemResetWarning,0831.7,5.00,000.00,025.9,024.8,000.0,034.1,027.4,13.7,0000.0,0003.24,0010.56,0002.57
2023-12-21 19:34:00,SystemResetWarning,0831.7,5.00,000.00,025.9,024.9,000.0,034.1,027.4,13.6,0000.0,0003.22,0010.11,0002.54
2023-12-21 19:35:00,SystemResetWarning,0831.7,4.99,000.00,025.9,025.0,000.0,034.1,027.4,13.6,0000.0,0003.22,0010.70,0002.55
2023-12-21 19:36:00,SystemResetWarning,0831.7,5.00,000.00,026.0,025.1,000.0,034.1,027.5,13.5,0000.0,0003.20,0010.25,0002.53
2023-12-21 19:37:00,SystemResetWarning,0831.7,5.00,000.00,026.0,025.1,000.0,034.1,027.5,13.5,0000.0,0003.21,0009.60,0002.50
2023-12-21 19:38:00,SystemResetWarning,0831.7,5.00,000.00,026.0,025.2,000.0,034.1,027.6,13.5,0000.0,0003.19,0008.85,0002.48
2023-12-21 19:39:00,SystemResetWarning,0831.7,5.00,000.00,026.1,025.3,000.0,034.1,027.6,13.5,0000.0,0003.18,0008.77,0002.46
2023-12-21 19:40:00,SystemResetWarning,0831.7,5.00,000.00,026.1,025.3,000.0,034.2,027.7,13.5,0000.0,0003.17,0008.91,0002.47
2023-12-21 19:41:00,SystemResetWarning,0831.6,5.00,000.00,026.1,025.3,000.0,034.2,027.7,13.5,0000.0,0003.15,0008.25,0002.47
2023-12-21 19:42:00,SystemResetWarning,0831.6,4.98,000.00,026.1,024.0,000.0,034.2,027.7,13.5,0000.0,0003.15,0008.22,0002.45
2023-12-21 19:43:00,SystemResetWarning,0831.6,5.01,000.00,026.1,022.8,000.0,034.2,027.5,13.5,0000.0,0003.15,0008.20,0002.43
2023-12-21 19:44:00,SystemResetWarning,0831.6,5.02,000.00,026.0,022.8,000.0,034.1,027.1,13.6,0000.0,0003.19,0007.89,0002.43
2023-12-21 19:45:00,SystemResetWarning,0831.6,4.99,000.00,025.8,023.1,000.0,034.1,026.9,13.7,0000.0,0003.14,0007.79,0002.38
2023-12-21 19:46:00,SystemResetWarning,0831.6,4.99,000.00,025.8,023.4,000.0,034.1,026.9,13.8,0000.0,0003.11,0006.84,0002.35
2023-12-21 19:47:00,SystemResetWarning,0831.6,5.00,000.00,025.8,023.7,000.0,034.0,027.0,13.8,0000.0,0003.15,0006.38,0002.36
2023-12-21 19:48:00,SystemResetWarning,0831.6,5.01,000.00,025.8,024.0,000.0,034.0,027.1,13.7,0000.0,0003.15,0006.38,0002.37
2023-12-21 19:49:00,SystemResetWarning,0831.6,5.00,000.00,025.8,024.2,000.0,034.0,027.1,13.7,0000.0,0003.16,0006.42,0002.41
2023-12-21 19:50:00,SystemResetWarning,0831.5,4.98,000.00,025.8,024.4,000.0,034.0,027.2,13.6,0000.0,0003.20,0006.46,0002.48
2023-12-21 19:51:00,SystemResetWarning,0831.6,5.00,000.00,025.8,024.6,000.0,034.0,027.3,13.6,0000.0,0003.25,0005.98,0002.53
2023-12-21 19:52:00,SystemResetWarning,0831.6,5.01,000.00,025.8,024.7,000.0,034.0,027.4,13.6,0000.0,0003.32,0006.22,0002.58
2023-12-21 19:53:00,SystemResetWarning,0831.5,4.99,000.00,025.9,024.9,000.0,034.0,027.4,13.6,0000.0,0003.37,0006.65,0002.65
2023-12-21 19:54:00,SystemResetWarning,0831.6,4.99,000.00,025.9,025.0,000.0,034.1,027.5,13.7,0000.0,0003.45,0008.07,0002.70
2023-12-21 19:55:00,SystemResetWarning,0831.6,5.00,000.00,026.0,025.1,000.0,034.1,027.6,13.7,0000.0,0003.46,0008.71,0002.75
2023-12-21 19:56:00,SystemResetWarning,0831.6,5.00,000.00,026.0,025.2,000.0,034.1,027.6,13.7,0000.0,0003.53,0009.59,0002.84
2023-12-21 19:57:00,SystemResetWarning,0831.6,5.00,000.00,026.0,025.2,000.0,034.1,027.6,13.5,0000.0,0003.58,0009.64,0002.89
2023-12-21 19:58:00,SystemResetWarning,0831.6,5.00,000.00,026.1,025.3,000.0,034.1,027.6,13.4,0000.0,0003.55,0009.64,0002.91
2023-12-21 19:59:00,SystemResetWarning,0831.6,5.00,000.00,026.1,025.4,000.0,034.2,027.7,13.4,0000.0,0003.56,0009.71,0002.95
